Погода в Верблюжьем

Россия / Астраханская область     47°43′26″N   46°52′39″E
темп.,
°C
ветер,
м/с
пор.,
м/с
влажн.,
%
обл.,
%
осадки,
мм/ч
давл.,
гПа
погр.,
м
15 апреля, чт
чт1501:00+14ююз333562 0.0 101517
04:00+13с4439100 0.0 101443
07:00+12св334541 0.0 101444
10:00+17св334183 0.1 1014332
13:00+22ссв572857 0.1 10121699
16:00+23всв782863 0.1 10112616
19:00+19всв3340100 0.0 101147
22:00+16зсз224812 0.0 101112
16 апреля, пт
пт1601:00+14сз575567 0.0 1011132
04:00+12зсз5106654 0.0 1012175
07:00+12зсз511735 0.0 1013275
10:00+18сз79415 0.0 1014629
13:00+22сз893041 0.0 10151559
16:00+22сз783082 0.0 10151926
19:00+20сз5840100 0.0 1015186
22:00+16сз445252 0.0 101658
17 апреля, сб
сб1701:00+14ссз236065 0.0 101723
04:00+14з336099 0.0 101729
07:00+12зсз697866 0.0 1018274
10:00+17сз4458100 0.0 1019638
13:00+19зсз6748100 0.0 10191692
16:00+14зюз101180100 0.9 1020761
19:00+13сз587493 1.8 1020374
22:00+11зсз36815 1.8 1020116
18 апреля, вс
вс1801:00+10зсз348263 0.0 102050
04:00+9сз33852 0.0 102027
07:00+9з237825 0.0 102051
10:00+14з335381 0.0 1019701
13:00+17зсз2336100 0.0 10182011
16:00+18з3332100 0.0 10172275
19:00+16з2340100 0.0 101764
22:00+14ссз3549100 0.0 1017150
19 апреля, пн
пн1901:00+13с226090 0.0 101746
04:00+11сз1168100 0.3 101727
07:00+11ссз2378100 1.6 1017163
10:00+13сз676387 1.9 10181026
13:00+12ссв885411 0.1 10201051
16:00+10с101067100 0.1 10221220
19:00+8ссв91176100 0.1 1024984
22:00+6св81277100 0.1 1026772